| time (UTC) | temp C | wind direction | speed KPH | gust KPH | rain 1hr cm | rain 24hr cm | rain mn cm | humidity % | barometer mb |
| 20260906192856 | 37 | 315 | 4.8 | 8.0 | 0.00 | 0.00 | 0.00 | 40 | 1013.5 |
| 20260906191836 | 37 | 225 | 9.7 | 11.3 | 0.00 | 0.00 | 0.00 | 42 | 1013.8 |
| 20260906190816 | 37 | 203 | 6.4 | 9.7 | 0.00 | 0.00 | 0.00 | 40 | 1014.0 |
| 20260906185815 | 37 | 180 | 4.8 | 8.0 | 0.00 | 0.00 | 0.00 | 41 | 1014.3 |
| 20260906184815 | 37 | 180 | 9.7 | 14.5 | 0.00 | 0.00 | 0.00 | 40 | 1014.5 |
| 20260906183815 | 37 | 135 | 8.0 | 11.3 | 0.00 | 0.00 | 0.00 | 43 | 1014.6 |
| 20260906182816 | 37 | 135 | 4.8 | 8.0 | 0.00 | 0.00 | 0.00 | 42 | 1014.8 |
| 20260906181836 | 37 | 180 | 11.3 | 16.1 | 0.00 | 0.00 | 0.00 | 42 | 1015.1 |
| 20260906180815 | 36 | 0.0 | 1.6 | 0.00 | 0.00 | 0.00 | 43 | 1015.0 | |
| 20260906175816 | 36 | 0.0 | 1.6 | 0.00 | 0.00 | 0.00 | 44 | 1015.4 | |
| 20260906174856 | 36 | 158 | 3.2 | 6.4 | 0.00 | 0.00 | 0.00 | 44 | 1015.6 |
| 20260906173815 | 36 | 203 | 8.0 | 11.3 | 0.00 | 0.00 | 0.00 | 45 | 1015.8 |
| 20260906172856 | 36 | 225 | 4.8 | 8.0 | 0.00 | 0.00 | 0.00 | 45 | 1016.1 |
| 20260906171815 | 36 | 135 | 3.2 | 8.0 | 0.00 | 0.00 | 0.00 | 45 | 1016.1 |
| 20260906170856 | 36 | 293 | 4.8 | 8.0 | 0.00 | 0.00 | 0.00 | 45 | 1016.3 |
| 20260906165815 | 35 | 0.0 | 0.0 | 0.00 | 0.00 | 0.00 | 46 | 1016.3 | |
| 20260906164816 | 35 | 270 | 9.7 | 11.3 | 0.00 | 0.00 | 0.00 | 46 | 1016.4 |
| 20260906163816 | 35 | 0.0 | 1.6 | 0.00 | 0.00 | 0.00 | 47 | 1016.6 | |
| 20260906162815 | 35 | 270 | 8.0 | 11.3 | 0.00 | 0.00 | 0.00 | 49 | 1016.7 |
| 20260906161815 | 34 | 270 | 4.8 | 6.4 | 0.00 | 0.00 | 0.00 | 49 | 1016.8 |
| 20260906160815 | 34 | 315 | 9.7 | 14.5 | 0.00 | 0.00 | 0.00 | 49 | 1016.6 |
| 20260906155815 | 34 | 0 | 4.8 | 6.4 | 0.00 | 0.00 | 0.00 | 51 | 1016.6 |
| 20260906154815 | 33 | 225 | 4.8 | 8.0 | 0.00 | 0.00 | 0.00 | 52 | 1016.4 |
| 20260906153856 | 33 | 293 | 4.8 | 8.0 | 0.00 | 0.00 | 0.00 | 53 | 1016.4 |
| 20260906152815 | 33 | 0.0 | 0.0 | 0.00 | 0.00 | 0.00 | 53 | 1016.3 | |
| 20260906151816 | 32 | 0.0 | 1.6 | 0.00 | 0.00 | 0.00 | 57 | 1016.3 | |
| 20260906150815 | 31 | 225 | 1.6 | 3.2 | 0.00 | 0.00 | 0.00 | 57 | 1016.2 |
| 20260906145815 | 31 | 0.0 | 1.6 | 0.00 | 0.00 | 0.00 | 60 | 1016.2 | |
| 20260906144835 | 30 | 203 | 1.6 | 3.2 | 0.00 | 0.00 | 0.00 | 61 | 1016.1 |
| 20260906143815 | 29 | 225 | 4.8 | 6.4 | 0.00 | 0.00 | 0.00 | 62 | 1016.1 |
| 20260906142815 | 29 | 0.0 | 0.0 | 0.00 | 0.00 | 0.00 | 64 | 1016.0 | |
| 20260906141815 | 28 | 158 | 4.8 | 6.4 | 0.00 | 0.00 | 0.00 | 64 | 1016.0 |
| 20260906140815 | 28 | 135 | 3.2 | 3.2 | 0.00 | 0.00 | 0.00 | 66 | 1015.9 |
| 20260906135815 | 27 | 0.0 | 1.6 | 0.00 | 0.00 | 0.00 | 68 | 1015.9 | |
| 20260906134815 | 27 | 113 | 4.8 | 4.8 | 0.00 | 0.00 | 0.00 | 69 | 1015.8 |
| 20260906133815 | 26 | 90 | 6.4 | 6.4 | 0.00 | 0.00 | 0.00 | 71 | 1015.9 |
| 20260906132815 | 25 | 90 | 4.8 | 6.4 | 0.00 | 0.00 | 0.00 | 73 | 1015.6 |
| 20260906131815 | 23 | 90 | 3.2 | 4.8 | 0.00 | 0.00 | 0.00 | 74 | 1015.4 |
| 20260906130815 | 22 | 0.0 | 0.0 | 0.00 | 0.00 | 0.00 | 78 | 1015.3 | |
| 20260906125835 | 22 | 0.0 | 0.0 | 0.00 | 0.00 | 0.00 | 79 | 1015.3 | |
| 20260906124815 | 21 | 338 | 3.2 | 4.8 | 0.00 | 0.00 | 0.00 | 80 | 1015.0 |
| 20260906123815 | 21 | 0.0 | 0.0 | 0.00 | 0.00 | 0.00 | 80 | 1015.0 | |
| 20260906122815 | 20 | 0.0 | 0.0 | 0.00 | 0.00 | 0.00 | 80 | 1014.7 | |
| 20260906121815 | 20 | 0.0 | 0.0 | 0.00 | 0.00 | 0.00 | 80 | 1014.5 | |
| 20260906120835 | 20 | 0.0 | 0.0 | 0.00 | 0.00 | 0.00 | 80 | 1014.3 | |
| 20260906115817 | 20 | 0.0 | 0.0 | 0.00 | 0.00 | 0.00 | 80 | 1014.1 | |
| 20260906114817 | 20 | 0.0 | 0.0 | 0.00 | 0.00 | 0.00 | 80 | 1014.1 | |
| 20260906113817 | 20 | 0.0 | 0.0 | 0.00 | 0.00 | 0.00 | 80 | 1014.1 | |
| 20260906112817 | 20 | 0.0 | 0.0 | 0.00 | 0.00 | 0.00 | 80 | 1013.9 | |
| 20260906111817 | 21 | 0.0 | 0.0 | 0.00 | 0.00 | 0.00 | 80 | 1013.8 | |
| 20260906110817 | 21 | 0.0 | 0.0 | 0.00 | 0.00 | 0.00 | 79 | 1014.0 | |
| 20260906105817 | 21 | 0.0 | 0.0 | 0.00 | 0.00 | 0.00 | 79 | 1014.0 | |
| 20260906104837 | 21 | 0.0 | 0.0 | 0.00 | 0.00 | 0.00 | 80 | 1014.1 | |
| 20260906103817 | 21 | 0.0 | 0.0 | 0.00 | 0.00 | 0.00 | 80 | 1014.2 | |
| 20260906102837 | 21 | 0.0 | 0.0 | 0.00 | 0.00 | 0.00 | 79 | 1014.1 | |
| 20260906101837 | 21 | 0.0 | 0.0 | 0.00 | 0.00 | 0.00 | 79 | 1014.1 | |
| 20260906100817 | 21 | 0.0 | 0.0 | 0.00 | 0.00 | 0.00 | 79 | 1014.1 | |
| 20260906095817 | 21 | 0.0 | 0.0 | 0.00 | 0.00 | 0.00 | 80 | 1014.1 | |
| 20260906094817 | 21 | 0.0 | 0.0 | 0.00 | 0.00 | 0.00 | 79 | 1014.1 | |
| 20260906093837 | 21 | 113 | 1.6 | 3.2 | 0.00 | 0.00 | 0.00 | 79 | 1014.1 |
| 20260906092817 | 21 | 113 | 3.2 | 4.8 | 0.00 | 0.00 | 0.00 | 78 | 1013.9 |
| 20260906091817 | 22 | 68 | 3.2 | 4.8 | 0.00 | 0.00 | 0.00 | 78 | 1013.9 |
| 20260906090817 | 22 | 68 | 3.2 | 4.8 | 0.00 | 0.00 | 0.00 | 78 | 1013.8 |
| 20260906085917 | 22 | 0.0 | 0.0 | 0.00 | 0.00 | 0.00 | 77 | 1013.9 | |
| 20260906084817 | 22 | 68 | 4.8 | 4.8 | 0.00 | 0.00 | 0.00 | 77 | 1013.8 |
| 20260906083816 | 22 | 68 | 3.2 | 4.8 | 0.00 | 0.00 | 0.00 | 77 | 1013.8 |
| 20260906082816 | 22 | 0.0 | 0.0 | 0.00 | 0.00 | 0.00 | 77 | 1014.0 | |
| 20260906081816 | 22 | 0.0 | 0.0 | 0.00 | 0.00 | 0.00 | 77 | 1013.9 | |
| 20260906080816 | 22 | 0.0 | 0.0 | 0.00 | 0.00 | 0.00 | 76 | 1013.9 | |
| 20260906075816 | 22 | 0.0 | 0.0 | 0.00 | 0.00 | 0.00 | 76 | 1013.9 | |
| 20260906074816 | 23 | 0.0 | 0.0 | 0.00 | 0.00 | 0.00 | 75 | 1013.9 | |
| 20260906073817 | 23 | 0.0 | 1.6 | 0.00 | 0.00 | 0.00 | 74 | 1013.9 | |
| 20260906072816 | 23 | 113 | 3.2 | 3.2 | 0.00 | 0.00 | 0.00 | 73 | 1013.9 |
| 20260906071816 | 23 | 113 | 4.8 | 4.8 | 0.00 | 0.00 | 0.00 | 73 | 1013.6 |
| 20260906070816 | 24 | 0.0 | 0.0 | 0.00 | 0.00 | 0.00 | 72 | 1013.6 | |
| 20260906065817 | 24 | 0.0 | 0.0 | 0.00 | 0.00 | 0.00 | 72 | 1013.7 | |
| 20260906064817 | 25 | 0.0 | 0.0 | 0.00 | 0.00 | 0.00 | 71 | 1013.9 | |
| 20260906063836 | 25 | 0.0 | 0.0 | 0.00 | 0.00 | 0.00 | 70 | 1013.8 | |
| 20260906062817 | 26 | 158 | 3.2 | 6.4 | 0.00 | 0.00 | 0.00 | 68 | 1013.8 |
| 20260906061816 | 26 | 113 | 6.4 | 9.7 | 0.00 | 0.00 | 0.00 | 67 | 1013.9 |
| 20260906060816 | 26 | 113 | 6.4 | 9.7 | 0.00 | 0.00 | 0.00 | 67 | 1014.0 |
| 20260906055816 | 26 | 113 | 4.8 | 6.4 | 0.00 | 0.00 | 0.00 | 67 | 1014.0 |
| 20260906054816 | 26 | 113 | 6.4 | 9.7 | 0.00 | 0.00 | 0.00 | 66 | 1014.0 |
| 20260906053816 | 26 | 113 | 4.8 | 6.4 | 0.00 | 0.00 | 0.00 | 66 | 1014.0 |
| 20260906052837 | 26 | 113 | 3.2 | 4.8 | 0.00 | 0.00 | 0.00 | 65 | 1013.9 |
| 20260906051816 | 27 | 135 | 6.4 | 6.4 | 0.00 | 0.00 | 0.00 | 65 | 1014.0 |
| 20260906050816 | 27 | 113 | 6.4 | 6.4 | 0.00 | 0.00 | 0.00 | 65 | 1013.9 |
| 20260906045815 | 27 | 135 | 6.4 | 8.0 | 0.00 | 0.00 | 0.00 | 65 | 1014.1 |
| 20260906044816 | 27 | 113 | 6.4 | 6.4 | 0.00 | 0.00 | 0.00 | 65 | 1013.9 |
| 20260906043815 | 27 | 113 | 4.8 | 6.4 | 0.00 | 0.00 | 0.00 | 65 | 1013.9 |
| 20260906042815 | 27 | 113 | 4.8 | 6.4 | 0.00 | 0.00 | 0.00 | 64 | 1013.9 |
| 20260906041815 | 28 | 135 | 4.8 | 6.4 | 0.00 | 0.00 | 0.00 | 63 | 1013.9 |
| 20260906040835 | 28 | 135 | 6.4 | 6.4 | 0.00 | 0.00 | 0.00 | 62 | 1014.0 |
| 20260906035815 | 28 | 135 | 6.4 | 8.0 | 0.00 | 0.00 | 0.00 | 62 | 1014.0 |
| 20260906034855 | 28 | 113 | 4.8 | 6.4 | 0.00 | 0.00 | 0.00 | 62 | 1013.8 |
| 20260906033815 | 28 | 113 | 8.0 | 9.7 | 0.00 | 0.00 | 0.00 | 62 | 1013.4 |
| 20260906032815 | 27 | 135 | 4.8 | 6.4 | 0.00 | 0.00 | 0.00 | 63 | 1013.2 |
| 20260906031816 | 27 | 158 | 3.2 | 4.8 | 0.00 | 0.00 | 0.00 | 65 | 1013.1 |
| 20260906030815 | 27 | 180 | 6.4 | 8.0 | 0.00 | 0.00 | 0.00 | 64 | 1012.9 |
| 20260906025815 | 28 | 135 | 4.8 | 6.4 | 0.00 | 0.00 | 0.00 | 62 | 1012.8 |
| 20260906024816 | 28 | 135 | 8.0 | 8.0 | 0.00 | 0.00 | 0.00 | 64 | 1012.9 |
| 20260906023815 | 28 | 135 | 3.2 | 4.8 | 0.00 | 0.00 | 0.00 | 61 | 1012.9 |
| 20260906022815 | 28 | 135 | 3.2 | 4.8 | 0.00 | 0.00 | 0.00 | 60 | 1012.6 |
| 20260906021835 | 29 | 135 | 3.2 | 4.8 | 0.00 | 0.00 | 0.00 | 58 | 1012.4 |
| 20260906020815 | 29 | 135 | 3.2 | 4.8 | 0.00 | 0.00 | 0.00 | 58 | 1012.4 |
| 20260906015856 | 29 | 180 | 4.8 | 6.4 | 0.00 | 0.00 | 0.00 | 60 | 1012.1 |
| 20260906014815 | 30 | 158 | 4.8 | 6.4 | 0.00 | 0.00 | 0.00 | 58 | 1012.0 |
| 20260906013815 | 30 | 180 | 1.6 | 3.2 | 0.00 | 0.00 | 0.00 | 56 | 1011.8 |
| 20260906012815 | 31 | 180 | 3.2 | 4.8 | 0.00 | 0.00 | 0.00 | 54 | 1011.9 |
| 20260906011835 | 31 | 180 | 3.2 | 3.2 | 0.00 | 0.00 | 0.00 | 52 | 1011.7 |
| 20260906010815 | 32 | 135 | 4.8 | 4.8 | 0.00 | 0.00 | 0.00 | 51 | 1011.7 |
| 20260906005815 | 32 | 158 | 3.2 | 4.8 | 0.00 | 0.00 | 0.00 | 50 | 1011.6 |
| 20260906004835 | 32 | 135 | 4.8 | 6.4 | 0.00 | 0.00 | 0.00 | 49 | 1011.6 |
| 20260906003815 | 33 | 158 | 3.2 | 4.8 | 0.00 | 0.00 | 0.00 | 48 | 1011.5 |
| 20260906002815 | 33 | 180 | 3.2 | 6.4 | 0.00 | 0.00 | 0.00 | 48 | 1011.6 |
| 20260906001815 | 34 | 203 | 4.8 | 6.4 | 0.00 | 0.00 | 0.00 | 47 | 1011.6 |
| 20260906000835 | 35 | 180 | 3.2 | 4.8 | 0.00 | 0.00 | 0.00 | 47 | 1011.7 |
| 20260905235815 | 35 | 180 | 4.8 | 6.4 | 0.00 | 0.00 | 0.00 | 45 | 1011.6 |
| 20260905234815 | 35 | 180 | 3.2 | 6.4 | 0.00 | 0.00 | 0.00 | 45 | 1011.7 |
| 20260905233815 | 36 | 135 | 11.3 | 14.5 | 0.00 | 0.00 | 0.00 | 42 | 1011.7 |
| 20260905232815 | 36 | 158 | 6.4 | 9.7 | 0.00 | 0.00 | 0.00 | 41 | 1011.8 |
| 20260905231835 | 37 | 203 | 9.7 | 12.9 | 0.00 | 0.00 | 0.00 | 41 | 1011.7 |
| 20260905230817 | 37 | 158 | 8.0 | 11.3 | 0.00 | 0.00 | 0.00 | 39 | 1011.9 |
| 20260905225817 | 37 | 180 | 6.4 | 9.7 | 0.00 | 0.00 | 0.00 | 39 | 1012.0 |
| 20260905224817 | 38 | 135 | 12.9 | 17.7 | 0.00 | 0.00 | 0.00 | 38 | 1011.9 |
| 20260905223817 | 37 | 113 | 9.7 | 14.5 | 0.00 | 0.00 | 0.00 | 39 | 1011.9 |
| 20260905222817 | 37 | 135 | 3.2 | 4.8 | 0.00 | 0.00 | 0.00 | 38 | 1011.9 |
| 20260905221817 | 38 | 135 | 3.2 | 6.4 | 0.00 | 0.00 | 0.00 | 38 | 1012.0 |
| 20260905220817 | 38 | 113 | 11.3 | 17.7 | 0.00 | 0.00 | 0.00 | 40 | 1011.9 |
| 20260905215817 | 38 | 113 | 8.0 | 14.5 | 0.00 | 0.00 | 0.00 | 40 | 1012.0 |
| 20260905214817 | 38 | 180 | 9.7 | 17.7 | 0.00 | 0.00 | 0.00 | 40 | 1012.0 |
| 20260905213817 | 38 | 225 | 4.8 | 6.4 | 0.00 | 0.00 | 0.00 | 40 | 1011.9 |
| 20260905212837 | 38 | 113 | 8.0 | 12.9 | 0.00 | 0.00 | 0.00 | 40 | 1011.9 |
| 20260905211817 | 38 | 158 | 12.9 | 16.1 | 0.00 | 0.00 | 0.00 | 40 | 1012.1 |
| 20260905210817 | 37 | 180 | 14.5 | 19.3 | 0.00 | 0.00 | 0.00 | 41 | 1012.2 |
| 20260905205817 | 37 | 113 | 16.1 | 20.9 | 0.00 | 0.00 | 0.00 | 41 | 1012.3 |
| 20260905204817 | 37 | 135 | 4.8 | 8.0 | 0.00 | 0.00 | 0.00 | 42 | 1012.4 |
| 20260905203817 | 37 | 113 | 12.9 | 16.1 | 0.00 | 0.00 | 0.00 | 41 | 1012.5 |
| 20260905202817 | 37 | 90 | 11.3 | 16.1 | 0.00 | 0.00 | 0.00 | 42 | 1012.8 |
| 20260905201817 | 37 | 113 | 6.4 | 16.1 | 0.00 | 0.00 | 0.00 | 43 | 1013.0 |
| 20260905200817 | 37 | 135 | 11.3 | 16.1 | 0.00 | 0.00 | 0.00 | 44 | 1013.1 |
| 20260905195817 | 37 | 135 | 16.1 | 19.3 | 0.00 | 0.00 | 0.00 | 45 | 1013.3 |
| 20260905194857 | 37 | 135 | 9.7 | 14.5 | 0.00 | 0.00 | 0.00 | 43 | 1013.5 |
| 20260905193816 | 37 | 135 | 11.3 | 20.9 | 0.00 | 0.00 | 0.00 | 44 | 1013.4 |